Theta_e
325 318 313 304 298 294 291 294 297 309 315 318 326 323 309 308 310 306 317 349 359 358 361 363 366 364 362 360 359 360 361 363 363 363 363 363 363 362 362 363 363 361 358 354 355 358 358 358 356
324 315 304 298 293 291 293 296 305 305 310 310 308 307 306 304 308 309 311 359 359 360 359 361 365 365 362 361 360 359 359 360 362 362 362 362 362 362 362 362 362 360 356 353 355 358 358 356 356
315 311 301 294 289 290 292 296 299 302 306 306 304 307 306 303 310 307 309 357 360 359 359 361 365 364 363 361 360 359 359 359 360 360 361 362 362 362 362 363 361 358 355 353 355 357 357 357 357
310 303 299 293 294 293 294 297 300 303 305 305 303 301 304 309 307 307 312 359 358 358 359 364 364 364 362 361 360 360 359 359 359 359 360 360 361 362 362 363 361 359 355 353 354 356 356 356 356
301 297 292 290 289 294 297 298 299 300 300 301 301 300 301 306 311 329 330 356 356 358 361 362 364 363 363 361 359 359 360 360 360 359 358 359 360 361 361 362 362 360 358 355 353 353 355 354 354
298 295 290 289 291 296 297 298 300 299 299 299 299 299 299 306 322 340 347 353 358 359 360 361 363 363 362 362 361 360 360 359 360 360 360 359 359 359 361 361 362 361 360 358 355 355 354 353 353
296 292 289 289 293 294 297 297 298 299 299 299 301 297 298 313 313 349 354 355 357 360 361 361 360 362 362 361 360 360 359 359 359 359 359 360 359 358 359 360 361 362 361 359 358 356 354 352 352
296 294 291 289 293 293 296 296 296 298 297 303 303 297 295 304 310 323 324 335 345 356 359 357 359 359 358 359 361 360 360 359 359 359 358 359 360 359 358 357 359 361 361 360 359 357 355 353 352
296 291 288 291 293 292 294 295 297 300 299 299 300 300 303 307 309 312 318 321 325 322 325 350 352 351 353 358 360 361 360 360 359 358 359 356 354 355 357 357 357 359 360 360 360 358 356 355 353
294 290 292 295 295 293 295 294 298 298 297 298 300 302 304 304 305 307 310 309 312 314 317 321 324 327 337 348 351 356 359 357 358 356 354 354 352 352 355 356 358 358 360 360 360 359 358 357 351
291 291 294 295 295 296 296 296 296 296 293 297 298 299 301 302 303 305 304 306 309 312 317 318 319 320 322 325 327 328 335 346 350 355 355 353 354 353 352 350 353 356 357 356 357 356 355 352 349
294 295 295 297 298 294 296 297 296 295 297 301 301 301 300 301 302 304 305 308 311 313 315 316 317 316 317 319 320 322 324 329 331 341 352 353 353 352 349 349 348 350 353 354 353 353 353 349 349
291 293 294 295 296 293 296 295 296 296 298 301 300 301 300 301 302 305 308 310 311 312 313 314 315 315 316 317 318 319 321 324 327 333 338 341 345 348 351 349 350 350 351 352 352 353 349 349 348
293 293 292 292 292 292 295 293 295 297 299 299 299 299 300 303 304 305 308 310 311 313 313 314 315 315 316 317 317 318 321 324 325 328 330 332 334 337 345 348 346 347 349 350 351 349 347 346 348
293 292 292 292 292 292 295 291 293 297 298 297 298 299 302 304 306 309 310 310 311 312 314 314 314 314 314 316 318 318 321 323 323 324 324 327 331 332 333 333 334 336 339 347 349 349 349 346 345
289 288 286 290 292 293 295 287 295 297 296 296 297 299 302 303 306 306 309 310 311 312 311 313 317 312 312 314 315 318 322 320 320 323 323 324 327 331 332 331 332 334 335 335 339 348 346 344 343
287 283 284 289 293 292 292 287 294 296 296 296 296 298 301 303 305 306 308 308 309 309 309 311 313 313 314 315 315 318 321 317 320 322 321 322 325 328 329 329 331 333 334 337 339 340 344 344 343
283 284 285 285 290 290 288 289 293 294 294 296 295 298 301 303 305 306 308 308 307 307 308 310 311 311 311 313 315 316 314 315 317 318 319 322 323 326 326 328 329 329 329 331 335 338 341 342 344
288 286 286 288 292 290 289 289 292 293 293 294 294 297 300 303 304 306 307 307 307 308 308 309 308 309 309 311 312 310 311 314 315 316 317 320 322 325 325 324 322 323 322 323 325 326 326 337 339
289 286 286 289 292 291 289 290 293 294 294 295 295 295 301 301 302 304 305 305 306 307 308 308 308 308 310 311 311 312 312 312 313 314 315 316 316 319 321 322 321 321 320 319 321 323 324 328 339
288 286 286 288 290 290 289 288 291 295 295 296 297 297 300 302 302 303 303 304 306 307 307 307 307 307 308 308 307 306 306 306 306 307 308 311 314 317 319 320 320 319 318 317 318 321 322 321 331
285 291 291 290 287 283 288 280 287 290 292 295 296 295 297 301 303 303 302 303 304 305 306 306 306 305 306 307 304 303 303 302 303 304 306 308 312 314 317 319 320 319 318 316 318 321 322 324 323
290 292 291 290 285 283 284 282 285 288 289 292 293 294 295 301 302 302 302 303 304 305 304 304 304 304 305 304 304 302 302 301 302 303 303 306 307 310 313 316 318 318 317 318 317 319 320 323 324
294 290 288 287 283 278 284 284 282 286 289 295 297 298 297 298 300 302 303 303 303 301 302 302 302 303 303 304 304 303 301 300 300 301 301 302 304 307 312 315 317 317 317 317 318 319 320 322 324
289 285 277 278 278 278 284 282 284 290 293 297 298 298 297 299 301 301 300 301 301 300 300 301 301 301 302 303 303 302 301 300 300 300 301 302 302 304 306 308 313 314 316 317 318 318 319 320 320
287 286 279 276 275 279 288 283 289 296 298 298 297 297 297 298 299 300 301 301 299 299 300 301 301 301 301 302 301 301 301 300 301 301 302 302 302 304 306 306 308 309 311 313 316 317 318 319 320
286 284 286 282 281 279 283 287 292 296 296 296 296 297 297 298 299 301 300 300 299 299 300 300 300 300 300 300 300 300 300 300 300 301 302 302 303 304 305 307 307 308 309 310 311 313 316 318 320
290 292 283 280 278 277 280 283 285 292 294 296 295 296 298 299 299 299 300 299 298 298 299 299 299 299 300 299 299 301 300 301 301 301 301 302 303 304 305 305 306 306 307 309 310 311 315 318 318
288 286 286 285 282 278 276 282 291 291 295 295 296 297 298 298 299 300 299 298 298 298 297 298 298 298 298 299 299 299 300 301 301 301 301 302 302 303 303 304 305 305 306 306 307 308 311 313 316
292 289 288 281 281 281 280 284 295 296 296 297 297 299 299 299 299 299 297 297 296 297 298 298 298 298 299 299 299 299 300 300 300 300 301 302 302 303 303 303 303 304 304 304 306 307 309 312 314
Wind_Speed
4 3 3 4 4 5 3 4 2 4 3 2 7 5 5 2 2 4 1 3 9 10 7 8 11 13 13 14 12 12 10 10 12 13 13 13 14 13 11 10 9 9 9 8 9 10 11 10 10
2 3 3 3 6 4 5 4 5 3 4 8 8 4 4 3 2 4 4 5 7 9 6 5 10 11 13 12 13 11 10 10 10 11 11 11 11 12 11 9 9 9 9 8 8 9 10 9 8
2 2 4 5 4 5 5 3 1 4 2 3 4 5 4 5 7 3 3 5 10 8 6 5 9 10 11 12 13 13 11 9 9 11 11 9 9 9 8 6 6 8 8 7 7 7 7 7 6
2 4 5 6 2 3 3 2 4 5 3 7 3 7 4 3 4 5 10 8 10 8 7 7 6 6 6 7 10 13 13 11 9 9 9 9 9 7 5 3 3 3 4 4 5 4 4 6 4
4 4 5 5 1 4 3 4 1 3 3 4 2 4 3 8 9 7 4 8 10 8 6 6 8 7 6 6 5 5 6 9 10 9 8 8 8 7 6 4 2 2 1 1 2 2 2 3 2
5 4 5 4 4 1 2 2 4 3 2 4 5 5 3 6 8 9 7 9 10 9 8 7 9 8 7 6 5 4 4 3 4 7 9 7 5 5 6 5 4 3 2 3 2 2 2 2 1
6 5 5 4 6 2 3 2 5 6 5 3 7 5 3 6 8 5 9 10 10 9 9 6 5 7 7 6 5 4 4 3 2 2 3 4 7 6 4 4 4 4 4 4 5 5 5 4 2
6 6 3 3 4 5 3 2 1 4 2 5 3 5 5 2 4 9 12 11 9 8 8 7 6 5 4 3 4 3 2 2 1 2 3 3 4 5 6 7 6 5 5 6 6 7 7 7 6
3 6 3 6 6 4 4 5 3 2 5 3 3 4 7 6 1 12 13 11 9 10 9 7 6 6 5 4 2 3 1 2 2 2 3 3 2 3 5 5 8 9 8 8 8 8 8 8 6
5 4 9 6 6 6 6 3 6 5 3 5 7 7 6 5 6 12 12 10 9 7 7 9 8 10 10 8 8 6 4 2 1 1 2 2 2 3 4 6 10 11 10 9 9 9 9 9 3
3 5 6 4 5 7 8 6 3 10 2 6 13 10 6 6 8 11 7 7 8 5 6 7 9 7 7 5 4 4 4 5 5 4 2 2 2 2 4 3 3 3 7 4 6 5 4 5 4
2 4 5 7 6 4 7 5 5 3 8 9 10 13 8 9 9 10 9 7 8 7 6 6 7 7 7 4 4 4 4 3 4 5 6 3 1 3 3 3 3 5 4 6 6 5 6 7 7
1 2 2 2 8 3 5 4 6 7 3 7 7 7 11 10 8 4 6 6 7 8 6 6 6 6 5 7 4 4 4 4 3 4 5 4 4 4 2 4 4 5 5 6 6 7 7 9 8
2 1 2 1 4 3 7 3 4 7 6 9 10 9 10 15 14 7 6 8 7 7 7 6 7 6 6 5 4 3 3 3 3 3 4 5 3 3 4 3 3 4 4 6 7 7 7 7 9
0 2 4 2 3 4 5 4 8 4 8 11 10 9 10 10 10 17 13 10 10 6 7 8 7 6 6 5 3 2 1 2 2 2 4 4 4 4 4 3 4 4 5 7 8 8 7 7 9
4 6 3 2 5 3 9 8 10 8 11 12 10 8 8 10 13 6 9 8 8 8 8 8 6 7 6 5 2 2 1 1 2 2 2 4 4 3 3 3 3 5 5 5 6 7 8 8 10
7 3 4 6 7 2 7 4 10 8 10 11 9 9 9 7 8 8 8 9 9 9 9 8 7 6 5 4 3 2 0 2 3 2 3 4 4 5 3 3 3 4 4 5 5 6 8 10 10
6 4 4 4 3 3 4 8 8 4 7 13 10 9 10 11 16 9 9 8 7 7 6 7 5 4 1 2 2 2 1 1 2 3 4 5 4 5 4 3 3 3 3 5 6 8 8 9 11
1 1 2 3 4 2 6 7 11 6 4 7 8 9 10 14 5 6 8 8 7 6 7 7 8 5 3 2 2 2 2 3 3 3 6 5 5 5 5 4 4 3 3 3 5 6 8 9 5
3 1 6 6 3 3 4 8 9 5 7 9 11 11 16 9 9 9 8 7 8 8 8 7 7 5 3 3 2 2 2 2 3 3 5 5 6 6 6 6 5 5 3 4 4 4 5 5 4
3 5 5 7 3 2 4 7 6 7 5 5 8 8 14 20 18 12 10 9 7 8 9 8 8 5 3 3 1 2 1 1 2 2 4 5 6 7 8 8 7 7 4 5 5 5 6 6 5
4 8 5 4 4 4 1 8 6 6 8 6 12 9 11 13 11 9 9 8 8 8 6 5 6 4 3 2 1 3 1 2 3 4 4 5 7 8 9 9 8 8 6 5 6 6 6 6 7
8 5 7 3 3 1 2 2 8 3 6 11 9 8 8 13 17 15 12 9 7 7 7 5 5 4 2 3 2 2 2 3 4 6 7 6 5 8 10 9 8 8 6 7 7 7 7 7 8
9 6 7 5 3 2 8 8 6 4 5 6 5 6 9 11 10 11 8 8 7 4 5 5 5 3 4 3 1 2 5 6 6 9 8 7 6 5 7 7 8 9 8 8 8 9 9 9 9
6 7 3 4 3 7 0 2 10 6 7 6 14 10 5 9 14 13 10 8 7 7 6 5 5 5 6 3 3 5 6 7 9 10 8 8 7 7 7 7 7 7 9 10 9 9 9 10 9
7 9 8 7 5 5 1 7 8 3 5 7 5 2 5 7 9 11 11 9 8 7 7 7 6 6 5 3 6 6 7 6 8 10 9 8 8 9 9 9 8 10 11 12 11 10 9 10 11
5 4 5 7 3 2 6 8 8 2 5 4 4 7 8 8 8 11 8 7 8 8 8 7 7 6 5 6 5 7 7 9 10 12 11 9 9 9 10 10 10 11 11 12 13 11 12 12 11
6 8 4 3 4 5 5 5 8 5 4 3 4 7 7 8 7 6 8 8 6 6 6 5 6 5 5 6 6 8 9 9 11 10 11 11 11 11 11 11 12 12 12 12 13 12 15 14 11
3 2 5 5 5 7 2 8 8 9 11 11 10 11 11 9 9 10 8 6 7 5 5 6 4 5 5 5 7 9 10 10 11 11 12 12 12 12 12 12 13 13 13 13 13 14 16 17 15
6 9 7 8 6 3 3 13 6 9 12 11 11 9 7 8 9 6 5 6 6 6 5 5 4 5 5 6 8 10 11 11 12 12 13 13 13 12 12 13 14 14 16 16 15 16 15 17 18
Wind_Direction
337 330 140 60 59 66 312 262 257 118 120 104 120 138 126 56 73 160 289 109 126 134 144 148 139 132 128 127 124 121 117 109 113 119 124 130 136 141 146 150 152 149 147 147 138 129 123 122 118
7 152 51 93 88 89 258 268 181 133 131 124 81 84 71 66 21 329 37 70 126 132 128 139 141 133 130 127 125 122 120 119 119 120 124 131 137 144 150 152 152 152 150 149 143 135 133 130 122
170 56 90 96 115 160 196 244 227 76 90 97 91 55 54 321 301 335 41 124 115 104 100 141 139 134 135 132 130 128 128 128 132 134 134 136 139 141 144 148 149 152 153 151 148 141 135 128 121
87 18 35 85 138 240 232 112 122 129 46 50 106 70 67 174 279 353 319 107 94 96 97 124 110 99 109 124 136 138 139 139 135 140 144 141 138 128 123 131 138 141 151 150 150 144 141 129 122
36 68 58 94 189 294 298 98 54 86 92 61 33 112 75 328 335 6 60 97 102 88 87 97 101 89 83 80 78 99 127 140 142 142 147 148 142 138 144 144 150 174 168 169 177 167 177 144 131
45 94 65 156 171 255 15 90 123 98 103 135 77 98 85 333 358 354 78 88 97 100 108 111 109 102 97 94 93 83 85 100 132 148 148 147 150 158 164 167 170 196 237 266 266 264 235 247 221
114 83 170 170 149 91 156 99 165 148 124 96 143 88 110 354 346 35 74 82 91 103 107 106 104 117 120 126 133 136 129 126 134 150 166 162 165 174 198 205 207 209 227 264 289 293 288 282 286
105 93 109 201 185 178 189 90 123 86 55 131 107 149 151 125 334 79 67 67 63 64 88 94 89 93 91 89 131 138 135 143 171 201 189 207 221 219 208 207 227 248 253 258 265 281 291 298 306
127 67 161 200 168 184 167 137 191 344 89 52 34 108 130 135 71 76 76 63 64 52 33 49 60 54 59 77 81 64 114 195 208 241 249 229 221 251 250 252 241 240 240 251 263 273 280 289 295
89 111 205 188 185 181 155 146 152 100 96 33 78 60 88 64 83 86 91 87 76 57 46 63 67 58 54 52 39 34 26 13 22 313 291 272 250 247 243 254 256 249 245 241 245 256 265 276 276
153 180 187 206 204 154 148 143 127 120 313 198 160 151 124 107 83 100 84 95 109 112 82 64 72 70 76 68 57 41 34 29 14 354 296 267 246 249 264 274 274 265 259 245 246 258 254 255 259
163 218 183 168 164 127 162 138 108 152 214 171 179 142 132 134 126 127 122 126 129 110 106 95 80 74 64 75 64 61 46 30 19 1 10 347 297 239 220 246 255 256 256 251 246 245 258 259 247
144 276 169 190 149 144 125 178 180 210 197 163 128 129 146 141 142 123 131 125 133 116 122 111 108 102 97 75 55 48 48 48 25 21 17 10 349 326 294 271 252 242 244 236 241 240 248 265 268
295 307 6 187 177 113 146 220 143 253 131 146 149 169 158 158 161 141 162 151 148 144 140 135 106 99 82 68 65 72 63 54 48 35 22 18 9 339 323 331 297 280 243 245 241 238 234 241 254
251 103 7 258 193 229 125 289 223 209 161 163 179 184 163 180 170 170 169 164 162 170 156 158 142 130 119 134 139 127 111 79 45 11 355 1 358 344 334 317 302 286 295 280 243 239 234 242 249
78 53 132 267 152 255 144 235 249 193 161 192 186 186 186 190 189 176 175 170 175 159 171 169 162 161 160 150 133 92 109 18 322 322 334 337 337 331 329 312 289 289 290 280 285 256 237 239 246
5 193 183 302 200 126 172 269 245 188 174 195 188 188 195 196 191 194 185 178 177 173 156 145 140 121 107 93 96 95 230 314 294 293 296 292 298 298 294 276 281 295 286 276 270 274 273 247 240
211 196 222 214 202 168 188 264 285 174 176 211 197 187 194 199 211 179 180 184 175 163 152 132 110 101 65 33 42 57 359 284 244 257 262 279 288 285 285 277 277 299 313 316 315 297 283 276 267
146 172 254 252 256 214 222 246 252 251 202 190 185 193 203 211 196 186 190 179 167 154 151 148 143 162 155 152 157 144 185 241 271 279 282 283 282 279 276 257 267 271 264 259 291 296 299 291 280
185 292 284 283 264 164 288 260 250 246 223 210 201 205 206 191 183 195 192 185 180 160 165 156 150 142 157 133 181 160 173 241 245 266 289 285 287 277 273 255 255 252 261 263 259 275 293 276 250
214 183 223 219 1 15 337 280 237 260 258 242 242 210 207 196 189 190 186 188 173 177 180 170 143 141 128 108 152 46 53 350 311 284 275 270 276 281 276 267 257 256 233 252 251 255 268 281 276
245 209 177 179 104 235 47 280 286 241 249 257 252 207 204 197 191 180 171 177 183 195 177 147 127 142 102 117 113 101 143 291 251 273 255 267 271 272 271 267 263 258 251 234 242 254 247 270 271
228 143 153 137 130 84 280 315 261 249 255 251 256 260 231 200 182 175 174 173 198 178 167 149 147 120 151 196 136 91 299 236 271 286 280 273 276 269 268 265 263 259 246 243 230 243 244 252 259
153 80 55 60 101 318 212 179 274 243 215 303 273 255 243 178 170 154 159 172 186 156 149 163 161 168 217 236 356 300 285 293 297 298 294 289 277 263 260 268 260 259 254 247 240 234 237 247 254
82 73 347 346 6 231 203 124 249 242 281 253 287 282 235 165 154 150 155 180 190 183 182 184 176 209 224 252 296 284 272 271 275 280 281 283 282 272 268 258 262 266 264 257 246 241 236 239 250
187 153 157 206 198 253 94 237 252 246 307 300 300 168 124 133 137 148 177 192 190 189 191 194 194 227 244 272 275 271 266 265 267 272 269 267 266 270 269 263 256 258 265 268 259 246 242 237 242
191 166 201 104 21 64 234 291 305 234 359 24 74 112 127 133 154 182 196 194 193 189 195 195 208 234 257 265 262 264 265 263 266 275 266 266 265 266 260 258 264 262 263 261 260 257 250 244 240
164 159 80 3 169 229 269 268 237 236 211 141 138 156 180 188 199 206 206 199 190 187 196 203 221 249 270 273 268 276 273 270 275 276 271 272 274 271 267 267 267 266 261 259 259 258 251 239 242
145 187 52 125 142 180 210 257 216 210 187 188 200 199 199 201 208 211 208 190 184 188 202 225 240 258 269 274 276 278 285 286 286 279 282 279 277 273 270 269 269 267 265 263 258 253 252 247 243
176 194 157 140 223 228 165 261 201 210 192 184 207 215 215 215 221 221 186 180 194 209 229 242 256 253 261 276 284 288 295 294 286 280 280 280 279 276 274 272 271 269 272 268 260 255 250 245 239